EHI
1 5 14 18 14 11 10 9 5 4 5 6 6 6 6 6 6 3 1 0 0 0 0 1 1 1 0 0 0 0 0 0 1 0 0 0 0 0 0 0 0 0 0
2 6 14 18 16 12 10 8 5 3 4 6 6 6 6 6 5 3 1 0 0 0 0 0 0 0 0 0 0 0 0 0 1 0 0 0 0 0 0 0 0 0 0
5 8 14 18 17 13 10 8 5 3 3 4 5 5 5 5 3 1 0 0 0 0 0 0 0 0 0 0 0 0 0 0 0 0 0 0 0 0 0 0 0 0 0
10 12 15 18 18 15 11 8 5 2 1 2 2 2 2 2 1 0 0 0 0 0 0 0 0 0 0 0 0 0 0 0 0 0 0 0 0 0 1 0 0 0 0
13 15 17 18 19 15 11 8 5 2 1 0 0 0 1 0 0 0 0 0 1 1 0 0 0 0 0 0 0 0 0 0 0 0 0 0 0 0 0 0 0 0 0
16 17 19 20 20 17 12 8 6 3 1 0 0 0 1 0 0 0 0 1 1 1 0 0 0 0 0 0 0 0 0 0 0 0 0 0 0 0 0 0 0 0 0
19 19 20 21 20 17 13 8 6 5 3 1 0 0 0 0 0 0 0 1 1 0 0 0 0 0 0 0 0 0 0 0 0 0 0 0 0 0 0 0 0 0 0
17 18 19 20 19 17 13 9 7 6 5 4 2 0 0 0 0 0 0 0 0 0 0 0 0 0 0 0 0 0 0 0 0 0 0 0 0 0 0 0 0 0 0
12 14 17 19 19 17 13 10 8 7 7 9 6 2 0 0 0 0 0 0 0 0 0 0 0 0 0 0 0 0 0 0 0 0 0 0 0 0 0 0 0 0 0
8 12 16 17 17 14 11 9 8 7 8 9 7 3 0 0 0 0 0 0 0 0 0 0 0 0 0 0 0 0 0 0 0 0 0 0 0 0 0 0 0 0 0
6 9 13 14 13 11 9 7 7 6 6 5 4 1 0 0 0 0 0 0 0 0 0 0 0 0 0 0 0 0 0 0 0 0 0 0 0 0 0 0 0 0 0
5 6 9 10 9 9 8 7 6 4 2 1 1 0 0 0 0 0 0 0 0 0 0 0 0 0 0 0 0 0 0 0 0 0 0 0 0 0 0 0 0 0 0
2 2 3 5 5 6 8 7 4 2 0 0 0 0 0 0 0 0 0 0 0 0 0 0 0 0 0 0 0 0 0 0 0 0 0 0 0 0 0 0 0 0 0
1 0 0 1 2 4 6 5 2 1 0 0 0 0 0 0 0 0 0 0 0 0 0 0 0 0 0 0 0 0 0 0 0 0 0 0 0 0 0 0 0 0 0
0 0 0 0 0 1 2 1 1 1 1 0 0 0 0 0 0 0 0 0 0 0 0 0 0 0 0 0 0 0 0 0 0 0 0 0 0 0 0 0 0 0 0
0 0 0 0 0 0 0 0 1 1 1 0 0 0 0 0 0 0 0 0 0 0 0 0 0 0 0 0 0 0 0 0 0 0 0 0 0 0 0 0 0 0 0
0 0 0 0 1 0 0 0 0 0 0 0 0 0 0 0 0 0 0 0 0 0 0 0 0 0 0 0 0 0 0 0 0 0 0 0 0 0 0 0 0 0 0
0 0 0 0 0 0 0 0 0 0 0 0 0 0 0 0 0 0 0 0 0 0 0 0 0 0 0 0 0 0 0 0 0 0 0 0 0 0 0 0 0 0 0
0 0 0 0 0 0 0 0 0 0 0 0 0 0 0 0 0 0 0 0 0 0 0 0 0 0 0 0 0 0 0 0 0 0 0 0 0 0 0 0 0 0 0
0 0 0 0 0 0 0 0 0 0 0 0 0 0 0 0 0 0 0 0 0 0 0 0 0 0 0 0 0 0 0 0 0 0 0 0 0 0 0 0 0 0 0
0 0 0 0 0 0 0 0 0 0 0 0 0 0 0 0 0 0 0 0 0 0 0 0 0 0 0 0 0 0 0 0 0 0 0 0 0 0 0 0 0 0 0
0 0 0 0 0 0 0 0 0 0 0 0 0 0 0 0 0 0 0 0 0 0 0 0 0 0 0 0 0 0 0 0 0 0 0 0 0 0 0 0 0 0 0
0 0 0 0 0 0 0 0 0 0 0 0 0 0 0 0 0 0 0 0 0 0 0 0 0 0 0 0 0 0 0 0 0 0 0 0 0 0 0 0 0 0 0
0 0 0 0 0 0 0 0 0 0 0 0 0 0 0 0 0 0 0 0 0 0 0 0 0 0 0 0 0 0 0 0 0 0 0 0 0 0 0 0 0 0 0
0 0 0 0 0 0 0 0 0 0 0 0 0 0 0 0 0 0 0 0 0 0 0 0 0 0 0 0 0 0 0 0 0 0 0 0 0 0 0 0 0 0 0
0 0 0 0 0 0 0 0 0 0 0 0 0 0 0 0 0 0 0 0 0 0 0 0 0 0 0 0 0 0 0 0 0 0 0 0 0 0 0 0 0 0 0
Wind_Speed
4 5 12 12 12 12 11 11 11 11 11 11 11 11 11 11 11 11 10 10 10 10 10 10 11 10 10 9 9 9 8 8 9 8 7 6 6 6 6 7 6 4 7
7 7 12 12 12 12 12 11 11 11 10 10 11 11 10 10 10 10 10 10 10 10 10 10 10 10 10 9 9 8 8 8 8 8 7 5 5 4 4 5 5 4 6
8 7 10 12 12 12 12 12 11 11 10 10 10 10 10 10 10 10 10 10 10 10 10 10 10 9 9 9 8 8 8 8 8 8 6 3 3 4 4 4 4 5 5
9 7 8 11 12 12 12 12 11 11 10 10 10 10 10 10 10 10 10 9 9 9 9 9 9 9 8 8 8 8 8 8 8 8 4 3 2 4 5 4 5 5 4
7 6 8 11 11 12 12 12 11 11 10 10 10 9 9 10 10 10 9 9 9 9 9 8 8 8 8 7 8 8 9 9 8 7 4 4 3 4 5 5 5 4 4
6 6 7 10 11 11 11 11 11 11 10 10 9 9 9 10 10 9 9 9 8 9 8 8 8 7 7 7 8 9 9 9 7 4 4 4 3 5 6 6 5 5 4
6 5 7 11 11 11 11 11 11 11 10 10 9 9 9 9 10 9 9 9 9 8 8 8 8 8 7 8 9 10 9 8 5 4 4 3 3 6 7 6 6 5 5
7 6 6 11 11 10 10 10 10 10 10 10 9 9 9 9 9 9 8 8 8 8 8 8 8 7 7 8 9 10 11 8 6 5 4 3 5 7 7 7 7 6 5
6 6 4 5 8 10 10 10 10 10 9 9 9 9 8 8 8 8 8 7 7 8 8 7 7 7 8 8 9 10 10 10 5 3 4 3 6 7 7 7 7 7 6
5 6 5 4 4 5 5 9 9 9 8 8 8 8 7 7 7 7 6 7 7 7 7 7 7 8 8 9 9 10 10 8 5 4 3 4 8 8 8 7 7 7 7
4 4 5 4 4 4 4 6 6 7 7 7 6 7 6 3 3 4 5 6 7 7 7 8 8 8 9 9 10 10 8 4 4 3 3 8 10 9 8 8 8 7 7
4 4 5 5 4 4 4 3 2 3 4 4 3 4 3 3 2 4 5 7 7 7 7 8 8 8 6 4 6 8 3 4 4 3 4 9 10 10 9 8 8 8 7
5 4 4 5 4 4 3 3 2 2 2 3 4 4 3 3 2 3 2 3 3 5 3 4 5 3 3 3 3 3 4 3 2 2 4 9 9 9 9 8 8 8 7
5 4 4 4 4 3 3 3 3 2 2 2 3 4 3 2 2 2 2 2 2 1 2 2 2 3 3 3 4 4 4 3 2 2 3 8 8 8 8 8 8 7 7
5 5 5 5 5 4 4 3 3 3 3 3 3 3 4 3 2 2 2 2 2 2 2 2 2 3 3 3 3 4 4 3 3 3 2 7 8 8 8 8 9 9 8
5 5 5 5 5 4 4 4 3 3 3 3 2 3 4 3 3 3 2 2 1 1 1 2 2 2 2 2 3 3 3 3 3 3 2 4 7 8 9 9 9 9 9
5 5 5 6 5 5 4 4 4 3 3 3 2 3 3 4 4 3 2 2 1 1 2 2 3 2 3 3 3 3 2 3 3 3 2 2 3 6 8 9 9 9 9
5 5 5 6 6 5 4 4 3 3 3 3 2 2 3 4 4 3 2 2 1 2 2 2 2 2 2 2 2 2 2 2 2 2 2 2 2 2 5 8 9 9 10
5 6 5 5 5 5 4 3 3 4 3 3 2 2 3 3 4 3 2 1 2 2 2 2 2 2 2 2 1 1 1 1 1 2 2 2 2 2 2 5 7 8 9
5 5 5 6 5 5 4 3 3 3 3 2 2 2 3 3 3 3 2 2 2 2 2 2 2 2 1 1 1 2 2 1 1 1 1 2 2 2 2 2 3 4 7
4 4 5 6 5 5 3 3 3 2 2 2 1 2 3 3 3 3 2 2 2 2 2 2 2 2 2 1 2 2 3 2 2 1 1 1 2 2 2 2 2 2 3
5 5 6 5 6 5 4 3 3 3 2 1 1 2 2 2 2 2 2 2 2 2 2 2 2 1 1 2 2 2 2 3 3 2 1 1 1 1 2 2 1 1 1
5 6 6 6 5 5 5 4 3 3 2 2 1 1 1 2 2 2 3 2 2 2 2 1 1 2 1 1 1 2 2 1 2 2 2 1 1 1 1 1 1 1 1
6 5 5 6 6 5 5 5 5 4 3 3 2 2 1 2 2 2 3 3 3 2 2 1 1 1 2 1 0 1 1 2 1 2 3 2 2 2 2 2 2 2 2
4 4 5 5 5 5 5 5 5 4 3 2 2 2 1 1 1 2 2 3 3 2 2 1 1 1 2 2 1 1 1 1 1 2 3 3 3 2 2 2 2 2 2
4 4 5 6 5 5 5 5 5 5 4 3 2 2 1 1 1 1 2 2 2 2 2 2 1 1 1 2 2 2 2 2 2 2 2 3 3 3 2 2 2 2 2
Wind_Direction
160 163 142 137 131 126 120 117 114 110 105 102 99 97 94 90 88 87 85 82 78 74 70 67 65 64 63 62 61 60 56 53 50 49 47 46 51 59 69 68 63 62 70
151 152 140 136 131 128 123 118 115 111 108 106 102 100 98 95 92 90 86 85 82 78 74 70 66 64 62 61 60 57 53 49 45 43 40 35 36 49 71 77 76 77 70
135 139 139 134 131 128 126 122 118 113 111 108 105 105 102 99 96 91 86 84 81 77 73 69 66 64 62 59 57 53 48 43 41 38 36 27 26 50 72 88 87 83 76
134 137 139 134 132 130 129 125 121 118 114 111 108 106 104 100 96 91 86 82 80 77 75 71 67 63 61 57 53 48 44 40 40 36 33 21 19 56 63 81 86 84 77
131 133 139 136 133 131 130 128 125 121 117 113 110 107 104 102 97 92 88 83 79 76 73 70 66 62 58 54 49 45 43 40 43 40 30 23 18 56 62 68 70 72 70
127 130 138 137 133 131 131 130 127 124 121 116 112 110 107 104 99 93 88 85 80 76 72 69 65 61 56 52 48 47 47 49 47 39 32 23 19 55 63 64 64 60 54
131 132 139 138 136 132 132 131 130 127 123 120 118 113 110 105 99 93 88 85 83 79 75 72 67 62 55 50 48 47 48 52 55 43 31 21 29 57 59 58 56 55 52
136 135 138 140 136 133 132 132 132 129 126 123 120 115 109 104 99 95 91 86 82 80 76 72 67 61 56 50 49 49 52 57 57 47 33 22 39 54 56 57 55 52 47
135 131 121 136 139 136 132 132 133 132 129 124 120 115 110 105 101 99 94 88 82 78 73 69 65 60 55 52 52 53 59 58 52 41 38 25 36 48 50 50 50 49 46
134 134 129 124 134 134 134 135 135 134 129 123 116 112 105 99 96 93 89 83 80 74 69 65 63 60 54 50 50 56 64 56 47 37 24 30 42 47 48 46 46 47 45
139 143 142 141 146 149 151 146 137 134 126 115 108 107 103 92 90 87 79 76 74 70 65 62 62 57 51 47 51 58 60 52 48 38 22 37 44 46 47 47 47 44 44
161 167 157 154 157 160 155 132 130 129 122 116 112 109 103 95 86 87 73 70 68 63 59 58 58 53 49 39 45 53 54 53 50 34 29 37 39 43 46 46 45 40 37
170 171 160 159 166 161 145 143 135 122 119 115 115 114 106 91 78 69 72 60 54 58 50 43 46 37 41 46 48 50 53 55 49 32 27 36 36 39 43 44 44 41 36
168 170 164 155 160 158 146 145 144 136 131 127 122 119 113 102 88 84 82 74 66 55 47 43 46 41 44 49 58 58 55 56 48 33 30 38 37 36 39 41 43 43 41
168 170 171 158 153 154 142 148 138 139 137 133 122 121 122 118 115 104 89 80 73 65 65 51 51 53 51 50 56 64 61 59 54 46 28 39 39 37 39 40 42 44 45
181 173 170 161 153 154 147 144 141 140 136 121 119 124 122 123 122 112 96 80 75 74 76 76 71 70 62 59 55 57 63 62 59 50 37 32 39 40 40 40 41 40 41
183 170 167 163 153 151 149 147 138 137 132 123 123 120 121 122 121 118 106 92 77 72 72 68 61 62 61 56 51 51 64 62 62 53 45 37 28 35 39 39 37 35 34
170 168 169 159 150 146 146 139 133 129 125 124 124 113 116 120 123 116 111 106 93 78 75 79 69 64 53 48 34 25 42 54 57 56 54 52 42 34 31 39 35 32 27
169 169 167 148 150 147 138 129 127 125 119 119 115 118 110 111 120 117 112 104 98 84 76 81 74 81 65 38 23 32 28 36 40 58 59 58 56 53 37 36 36 31 25
159 160 164 153 151 141 127 113 101 101 108 109 120 130 117 109 111 119 118 102 96 89 70 77 84 69 81 49 33 29 6 7 32 56 66 55 49 53 48 40 25 18 20
146 150 163 160 156 145 135 139 133 139 124 117 133 134 125 120 115 112 120 110 100 98 92 93 99 74 42 34 55 21 2 11 30 30 38 50 40 38 44 37 27 17 1
162 162 165 167 164 159 150 145 135 134 131 134 125 122 128 126 128 120 115 117 110 102 84 75 95 97 41 39 87 80 9 350 355 9 357 28 31 21 24 22 16 11 358
171 174 170 166 166 161 149 127 109 93 83 94 119 126 141 142 137 130 124 117 113 118 125 119 125 130 133 16 79 129 136 238 308 323 332 348 349 350 330 321 328 327 331
187 177 162 163 161 156 148 149 148 149 156 178 169 155 140 137 139 141 136 134 130 125 137 154 129 142 144 153 25 58 151 163 168 308 317 322 321 301 296 305 305 298 296
175 167 161 156 155 150 151 155 147 146 153 140 129 138 149 135 147 155 147 139 138 141 153 151 130 141 154 163 167 153 87 77 152 180 273 305 319 298 287 281 277 279 283
154 156 155 153 156 155 154 154 156 158 156 147 149 159 171 161 168 170 144 143 150 156 168 175 171 166 173 168 169 173 175 184 193 188 233 268 285 286 286 275 265 263 270